Showing default

FLOCK 4G 3, 62639

Orbit data source: Space-Track

FLOCK 4G 3, 62639 is a payload satellite in SSO that was launched on Tue, 14 Jan 2025 UTC via an FALCON 9 launch vehicle from the Air Force Western Test Range (AFWTR). Payload-class satellites include a variety of spacecraft equipped with specific instruments for various scientific and technological missions. These include communications satellites like Starlink; space stations such as the ISS; scientific satellites like the Hubble; Earth observation satellites from companies like Planet Labs, Umbra, and HawkEye 360; GPS; miniature CubeSats for education and research; and military/defense satellites.

Loading next visibility...
Identifier
62639, 2025-009AG
Orbit
SSO
Last TLE update
1 day ago
Origin
Manufacturer
Planet
Mission
Operational Commercial Imaging
Bus & Motor
CUBESAT 3U, Unknown motor
Mass
5.7 kg wet, 5.7 kg dry
Launch date (UTC)
2025-01-14 (4 months ago)
Launch vehicle
FALCON 9
Launch site
Air Force Western Test Range (AFWTR)
Object type
Payload
Rocket body
Debris
Shape & HBR
Box + 2 Pan, 0.3 m
Radar Cross Section
0.035 m², Medium (>0.1 m² and < 1m²)

Expand to show TLE details & history

TLE from 1 day ago
0 FLOCK 4G 3
1 62639U 25009AG  25139.47474919  .00007100  00000-0  32788-3 0  9996
2 62639  97.4326 220.2525 0002070 213.6614 146.4490 15.20504551 18914
Epoch: 2025-05-19T11:23Z
TLE epoch observation values (Epoch: 2025-05-19T11:23:38.329Z)
Latitude
-0.00007°
Longitude
171.95596°
Altitude
508.596 km
Speed
7.609 km/s
True Right ascension
14h 41m 00s
True Declination
0° 00' 00"
Sunlit
Object was in full shadow at epoch
Visualization orbit readout
Latitude
-69.48242°
Longitude
-27.11546°
Altitude
529.228 km
Speed
7.598 km/s
Apparent Right ascension
14h 13m 09s
Apparent Declination
-76° 38' 11"
Sunlit
Object is in daylight
Visualization observer readout
Local Sidereal Time
01:49:17
Azimuth
182.298° SSW
Elevation
-53.188°
Doppler factor
1
Orbital elements
Apogee altitude
502.708 km
Perigee altitude
499.86 km
Semi-major axis
6,879.421 km
Eccentricity
0.00021
Inclination
97.4326°
RAAN
220.2525°
Arg. of periapsis
213.6614°
True anomaly
Unknown
Mean anomaly
146.449°
Eccentric anomaly
Unknown
Mean motion
3.80378 °/min
Orbital period
94.64 mins
BSTAR
0.00032788
Loading maneuver chart data...
Loading SW <> Apogee altitude chart data...
Loading historical data...
Loading historical data...
Loading historical data...
Loading historical data...
Loading historical data...
Loading historical data...
Loading historical data...

FLOCK 4G 3 Visibility forecast

Observer location: undefined°, undefined°

Span
Click to sort rows by Start time (UTC) header in descending order
Start Az.
Max El. time (UTC)
Max El. Az.
Max El.
End time (UTC)
End Az.
6 mins2025-05-20 17:58:21.830Z25.525° NE2025-05-20 18:01:21.830Z119.751° SE38.295°2025-05-20 18:04:21.830Z177.241° S
4 mins2025-05-21 04:37:21.830Z101.436° ESE2025-05-21 04:38:21.830Z80.417° E19.715°2025-05-21 04:41:21.830Z21.964° NNE
4 mins2025-05-21 06:11:21.830Z237.361° WSW2025-05-21 06:12:21.830Z260.569° W20.742°2025-05-21 06:15:21.830Z316.751° NNW
|